Starlink 35363

operational
NORAD ID: 66178 Int'l Des: 2025-243 Owner: SPXS Country: US Constellation: starlink
LEOCIRCULAR

Starlink 35363について

説明を読み込み中...

リアルタイム位置

3D地球を読み込み中...

次回通過

高度履歴

Altitude vs Time

uPlot chart will show altitude changes over time

軌道要素

1 66178U 25243B 25350.94481359 .00028958 00000-0 98446-3 0 9998
2 66178 53.1585 269.6990 0001173 73.2182 286.8948 15.30252309 7982
Epoch: Dec 16, 2025 • Age: 8 hours

現在のステータス

高度 477.1 km
速度 7.63 km/s
衛星直下点 34.58°N, 135.51°W
打ち上げ日 Oct 26, 2025
運用期間 0.1 years
タイプ internet

技術仕様

分類 Payload
質量 575.00 kg
乾燥質量 530.00 kg
総質量 575.00 kg
長さ 0.30 m
直径 4.10 m
スパン 29.00 m
形状 Box + pan
製造者 SPXS
バスタイプ Starlink V2MO
フェーズステータス In Orbit
所有者/国 SPXS/US

大規模コンステレーション

Loading constellations...